CZ-6A DEB, 54616

Orbit data source: Space-Track

CZ-6A DEB, 54616 is space debris in SSO originally from a launch on Fri, 11 Nov 2022 UTC launched from the Taiyaun Space Center, China (TSC). Debris objects in space refer to the collection of defunct objects orbiting the Earth. Examples of debris include non-operational satellites, rocket bodies, and fragments generated from explosions, collisions, or faulty payload assembly.

Loading next visibility...
Identifier
54616, 2022-151NS
Orbit
SSO
Country
Flag of CNCN / PRC
Related business
Manufacturer
SAST
Mission
Spacecraft
Bus & Motor
Unknown
Mass
Unknown
Launch date (UTC)
2022-11-11 (3 years ago)
Launch vehicle
Unknown
Launch site
Taiyaun Space Center, China (TSC)
Object type
Payload
Rocket body
Debris
Shape & HBR
Unknown shape, 0.1 m
Radar Cross Section
Small (<0.1 m²)

Expand to show TLE details & history
Last TLE update: 15 hours ago

TLE from 15 hours ago
0 CZ-6A DEB
1 54616U 22151NS  25354.85560163  .00000988  00000-0  54447-3 0  9998
2 54616  98.8211 351.2180 0056953 138.8809 221.6676 14.12999506158659
Epoch: 2025-12-20T20:32Z
TLE epoch observation values (Epoch: 2025-12-20T20:32:03.980Z)
Latitude
-0.00005°
Longitude
-46.47499°
Altitude
882.884 km
Speed
7.395 km/s
True Right ascension
23h 24m 52s
True Declination
0° 00' 00"
Sunlit
Object was in daylight at epoch
Visualization orbit readout
Latitude
Unknown
Longitude
Unknown
Altitude
Unknown
Speed
Unknown
Apparent Right ascension
Unknown
Apparent Declination
Unknown
Sunlit
N/A
Visualization observer readout
Local Sidereal Time
10:41:30
Azimuth
Unknown
Elevation
Unknown
Doppler factor
Unknown
Orbital elements
Apogee altitude
887.444 km
Perigee altitude
805.153 km
Semi-major axis
7,224.436 km
Eccentricity
0.0057
Inclination
98.8211°
RAAN
351.218°
Arg. of periapsis
138.8809°
True anomaly
221.23602°
Mean anomaly
221.6676°
Eccentric anomaly
221.45158°
Mean motion
3.53458 °/min
Orbital period
101.85 mins
BSTAR
0.00054447
Loading maneuver chart data...
Computing Atmospheric mass density...
Loading historical data...
Loading historical data...
Loading historical data...
Loading historical data...
Loading historical data...
Loading historical data...
Loading historical data...

Documentation

Showing up to 5 results
|